[[{"header":{"parameterUnit":"m.s-1","parameterCategory":1,"la1":30.2991,"la2":30.254,"lo1":-89.0895,"lo2":-89.0444,"dy":0.0017,"dx":0.0017,"nx":28,"ny":28,"refTime":"2023-10-02T03:00:00:Z","depth":0,"parameterNumber":2,"parameterNumberName":"U-component_of_WINDS"},"data":[0,0,0,0,0,0,0,0,0,0,0,0,0,0,0,0,0,0,0,0,0,0,0,0,0,0,0,0,0,0,0,0,0,0,0,0,0,0,0,0,0,0,0,0,0,0,0,0,0,0,0,0,0,0,0,0,0,0,-4.6076,-4.6077,0,-4.611,-4.611,-4.6111,-4.5995,-4.5991,-4.5988,-4.5984,-4.6017,-4.6021,-4.6025,0,0,0,0,0,0,0,0,0,0,0,0,0,-4.591,-4.5914,-4.6076,-4.6077,-4.6077,-4.611,-4.611,-4.6111,-4.5995,-4.5991,-4.5987,-4.5983,-4.6015,-4.602,-4.6025,0,0,0,0,0,0,0,0,0,0,0,0,0,-4.5967,-4.5915,-4.6076,-4.6023,-4.6019,-4.611,-4.6111,-4.6111,-4.5996,-4.5991,-4.5986,-4.5981,-4.6014,-4.602,-4.6026,-4.6169,0,0,-4.6045,-4.6047,0,0,0,0,0,0,0,0,-4.5964,-4.5973,-4.6031,-4.6027,-4.6023,-4.6043,-4.6064,-4.613,-4.5997,-4.6005,-4.5984,-4.5978,-4.603,-4.6034,-4.6052,-4.617,-4.6172,-4.6045,-4.6049,-4.6052,-4.6053,0,0,0,0,0,0,0,-4.596,-4.5971,-4.609,-4.6032,-4.6027,-4.5998,-4.6,-4.6076,-4.6046,-4.6004,-4.5995,-4.6001,-4.6026,-4.6046,-4.6052,-4.6172,-4.6045,-4.6051,-4.6054,-4.6057,-4.6408,-4.6413,0,0,0,0,0,0,-4.5963,-4.5968,-4.6088,-4.6091,-4.598,-4.6005,-4.6007,-4.6042,-4.6045,-4.604,-4.6006,-4.5996,-4.6038,-4.6045,-4.6052,-4.6218,-4.6052,-4.6057,-4.6061,-4.6402,-4.6409,-4.6415,0,0,0,0,0,0,-4.596,-4.5975,-4.6087,-4.6027,-4.6039,-4.6013,-4.6053,-4.6045,-4.6065,-4.6046,-4.604,-4.6031,-4.6034,-4.6044,-4.614,-4.6217,-4.606,-4.6066,-4.6396,-4.6404,-4.6412,-4.6551,0,0,0,0,0,0,-4.5956,-4.5975,-4.6029,-4.6029,-4.6043,-4.6175,-4.6057,-4.6049,-4.6076,-4.6063,-4.6069,-4.6065,-4.6031,-4.6132,-4.6147,-4.6223,-4.6071,-4.6389,-4.64,-4.641,-4.654,-4.6563,-4.6584,0,0,0,0,0,-4.595,-4.6066,-4.6032,-4.6047,-4.611,-4.618,-4.6188,-4.6147,-4.6083,-4.6136,-4.6125,-4.6065,-4.6208,-4.6143,-4.6158,-4.6238,-4.6383,-4.6396,-4.6409,-4.653,-4.6559,-4.6583,0,0,0,0,0,0,-4.6074,-4.6065,-4.6027,-4.6147,-4.6166,-4.616,-4.6227,-4.6179,-4.6215,-4.6202,-4.6149,-4.6152,-4.6257,-4.6258,-4.6186,-4.6376,-4.6284,-4.6301,-4.6371,-4.6398,-4.642,-4.6416,-4.6076,0,0,0,0,0,-4.6116,-4.6174,-4.6163,-4.627,-4.6281,-4.6253,-4.6282,-4.6249,-4.6265,-4.6272,-4.6267,-4.6285,-4.6334,-4.6367,-4.641,-4.6541,-4.6539,-4.6603,-4.6625,-4.6643,-4.6657,-4.6724,-4.6752,-4.6457,-4.6457,-4.6456,0,0,-4.6202,-4.6204,-4.6244,-4.6295,-4.6305,-4.6365,-4.626,-4.6328,-4.6372,-4.6282,-4.6372,-4.6371,-4.6387,-4.65,-4.655,-4.6504,-4.6739,-4.666,-4.6674,-4.6678,-4.674,-4.6768,-4.6793,-4.6465,-4.6464,-4.6462,0,0,-4.6388,-4.6397,-4.6486,-4.6499,-4.6516,-4.6497,-4.6519,-4.6522,-4.6516,-4.6607,-4.6541,-4.6592,-4.6678,-4.6691,-4.671,-4.6904,-4.6849,-4.692,-4.7034,-4.71,-4.7123,-4.7144,-4.721,-4.7235,-4.6935,-4.6935,-4.6935,0,-4.6492,-4.658,-4.6538,-4.6611,-4.6634,-4.6558,-4.6647,-4.6661,-4.6692,-4.671,-4.6659,-4.6764,-4.677,-4.6885,-4.6932,-4.6951,-4.6972,-4.6917,-4.7124,-4.7144,-4.7162,-4.7225,-4.725,-4.6943,-4.6942,-4.6941,-4.6941,0,-4.6706,-4.6769,-4.6839,-4.6871,-4.6903,-4.6984,-4.6953,-4.6991,-4.6957,-4.6943,-4.7036,-4.7041,-4.7083,-4.7109,-4.7076,-4.722,-4.719,-4.7133,-4.7039,-4.7199,-4.7257,-4.7281,-4.6955,-4.6952,-4.695,-4.6948,0,0,-4.6968,-4.6977,-4.7003,-4.7016,-4.7031,-4.7078,-4.7156,-4.7199,-4.7231,-4.7256,-4.7318,-4.7394,-4.734,-4.7361,-4.7329,-4.7388,-4.7539,-4.7323,-4.7322,-4.736,-4.7695,-4.7736,-4.7765,-4.7505,-4.7509,-4.7513,-4.7693,0,-4.7149,-4.7281,-4.7246,-4.7378,-4.7435,-4.7364,-4.7431,-4.7447,-4.7438,-4.7484,-4.7473,-4.7525,-4.7452,-4.7464,-4.752,-4.7509,-4.7605,-4.7496,-4.756,-4.7563,-4.7555,-4.7796,-4.7839,-4.8009,-4.7716,-4.772,-4.7723,0,-4.7377,-4.7411,-4.7549,-4.7553,-4.7576,-4.7637,-4.7673,-4.7719,-4.7736,-4.7725,-4.775,-4.7706,-4.7782,-4.7691,-4.7794,-4.7721,-4.7746,-4.7745,-4.775,-4.7751,-4.765,-4.7801,-4.8062,-4.8087,-4.7758,-4.7756,-4.7753,0,-4.755,-4.7631,-4.7723,-4.7737,-4.7746,-4.7791,-4.7797,-4.7808,-4.7836,-4.7869,-4.7886,-4.7927,-4.7949,-4.7981,-4.795,-4.7887,-4.8057,-4.7964,-4.8048,-4.8049,-4.8083,-4.8081,-4.8349,-4.8106,-4.8106,-4.8105,-4.8105,0,-4.7753,-4.784,-4.7801,-4.7858,-4.7952,-4.7912,-4.8006,-4.8004,-4.8016,-4.807,-4.8012,-4.8064,-4.8022,-4.807,-4.8047,-4.8134,-4.8145,-4.8137,-4.8129,-4.814,-4.8141,-4.8152,-4.8139,-4.8112,-4.811,-4.8109,-4.8108,0,-4.7961,-4.7939,-4.8035,-4.8037,-4.8039,-4.8109,-4.8109,-4.8161,-4.8148,-4.8218,-4.8232,-4.8211,-4.8265,-4.8238,-4.8295,-4.8279,-4.8391,-4.8369,-4.8385,-4.8378,-4.8462,-4.8454,-4.8745,-4.878,-4.8517,-4.852,-4.8522,0,-4.8091,-4.8155,-4.8164,-4.8197,-4.8207,-4.8261,-4.8289,-4.8252,-4.8284,-4.8309,-4.8358,-4.8408,-4.8444,-4.8534,-4.8524,-4.8566,-4.8543,-4.8642,-4.8548,-4.8557,-4.854,-4.8536,-4.8541,-4.8659,-4.8662,-4.8665,-4.8667,0,-4.8322,-4.8308,-4.8352,-4.8393,-4.8429,-4.8459,-4.8484,-4.8514,-4.8478,-4.8517,-4.8572,-4.8601,-4.8659,-4.8708,-4.8745,-4.875,-4.8702,-4.8697,-4.8718,-4.8728,-4.8734,-4.8729,-4.8433,-4.869,-4.8687,-4.8686,-4.8685,-4.8684,-4.8492,-4.8546,-4.8561,-4.8611,-4.8627,-4.8652,-4.8701,-4.8695,-4.874,-4.8784,-4.876,-4.8824,-4.884,-4.8885,-4.8897,-4.8946,-4.8906,-4.8937,-4.8944,-4.8952,-4.8962,-4.873,-4.8953,-4.8952,-4.8951,-4.8951,-4.895,0,-4.8717,-4.8724,-4.8771,-4.8808,-4.8849,-4.8803,-4.8828,-4.8864,-4.8921,-4.8941,-4.8979,-4.9042,-4.909,-4.9084,-4.9128,-4.9168,-4.9147,-4.918,-4.9175,-4.9177,-4.8996,-4.8972,-4.9196,-4.9196,-4.9196,-4.9196,-4.9196,-4.9196,-4.8839,-4.8927,-4.8916,-4.9011,-4.9017,-4.9079,-4.9098,-4.912,-4.9135,-4.9208,-4.9248,-4.9245,-4.9254,-4.9298,-4.9339,-4.9336,-4.9354,-4.9395,-4.9384,-4.9214,-4.919,-4.9166,-4.9143,-4.94,-4.94,-4.9559,-4.9561,-4.9562]},{"header":{"parameterUnit":"m.s-1","parameterCategory":1,"la1":30.2991,"la2":30.254,"lo1":-89.0895,"lo2":-89.0444,"dy":0.0017,"dx":0.0017,"nx":28,"ny":28,"refTime":"2023-10-02T03:00:00:Z","depth":0,"parameterNumber":3,"parameterNumberName":"V-component_of_WINDS"},"data":[0,0,0,0,0,0,0,0,0,0,0,0,0,0,0,0,0,0,0,0,0,0,0,0,0,0,0,0,0,0,0,0,0,0,0,0,0,0,0,0,0,0,0,0,0,0,0,0,0,0,0,0,0,0,0,0,0,0,1.8954,1.8954,0,1.8949,1.8949,1.8949,1.8983,1.8984,1.8985,1.8986,1.8975,1.8973,1.8972,0,0,0,0,0,0,0,0,0,0,0,0,0,1.8988,1.8987,1.8954,1.8954,1.8954,1.8949,1.8949,1.8949,1.8983,1.8984,1.8985,1.8986,1.8975,1.8974,1.8972,0,0,0,0,0,0,0,0,0,0,0,0,0,1.8977,1.8987,1.8954,1.897,1.8972,1.8949,1.8949,1.8949,1.8983,1.8984,1.8986,1.8987,1.8976,1.8974,1.8972,1.8931,0,0,1.8966,1.8966,0,0,0,0,0,0,0,0,1.8977,1.8976,1.8968,1.8969,1.8971,1.8968,1.8957,1.8942,1.8982,1.8978,1.8986,1.8988,1.8971,1.897,1.8965,1.893,1.893,1.8966,1.8965,1.8964,1.8964,0,0,0,0,0,0,0,1.8978,1.8976,1.8952,1.8968,1.8969,1.8976,1.8976,1.8954,1.8966,1.8979,1.8981,1.8981,1.8972,1.8967,1.8965,1.893,1.8966,1.8965,1.8963,1.8963,1.8862,1.8861,0,0,0,0,0,0,1.8977,1.8976,1.8952,1.8951,1.8978,1.8975,1.8975,1.8967,1.8967,1.8968,1.8979,1.8982,1.8969,1.8967,1.8965,1.8917,1.8964,1.8963,1.8962,1.8864,1.8862,1.886,0,0,0,0,0,0,1.8978,1.8975,1.8952,1.8965,1.8962,1.8972,1.8964,1.8966,1.8962,1.8967,1.8969,1.8972,1.897,1.8967,1.894,1.8917,1.8962,1.896,1.8865,1.8863,1.8861,1.8821,0,0,0,0,0,0,1.8979,1.8975,1.896,1.8964,1.8962,1.8928,1.8963,1.8965,1.8959,1.8963,1.8961,1.8962,1.8971,1.8942,1.8938,1.8915,1.8959,1.8867,1.8864,1.8862,1.8824,1.8817,1.8812,0,0,0,0,0,1.898,1.8948,1.8959,1.8956,1.8944,1.8927,1.8925,1.8938,1.8957,1.8942,1.8946,1.8962,1.8921,1.8939,1.8935,1.8911,1.8869,1.8865,1.8862,1.8827,1.8819,1.8812,0,0,0,0,0,0,1.8938,1.8948,1.8961,1.893,1.8928,1.8933,1.8914,1.8929,1.8919,1.8923,1.8938,1.8937,1.8907,1.8907,1.8927,1.8872,1.8898,1.8893,1.8873,1.8865,1.8859,1.8859,1.8957,0,0,0,0,0,1.8926,1.8913,1.8922,1.8893,1.8892,1.8903,1.8896,1.8907,1.8904,1.8902,1.8904,1.8899,1.8885,1.8875,1.8863,1.8825,1.8825,1.8807,1.88,1.8795,1.879,1.877,1.8762,1.8848,1.8848,1.8848,0,0,1.8899,1.8903,1.8894,1.8885,1.8884,1.8869,1.8902,1.8884,1.8872,1.8899,1.8873,1.8875,1.887,1.8838,1.8823,1.8836,1.8767,1.8791,1.8787,1.8784,1.8766,1.8758,1.875,1.8846,1.8846,1.8847,0,0,1.8843,1.8845,1.8821,1.8821,1.8821,1.8829,1.8823,1.8827,1.8829,1.8805,1.8825,1.8811,1.8786,1.8783,1.8777,1.8722,1.8736,1.8718,1.8684,1.8664,1.8657,1.8651,1.8631,1.8623,1.8713,1.8713,1.8713,0,1.8809,1.8788,1.8807,1.8788,1.8784,1.8811,1.8786,1.8784,1.8779,1.8774,1.879,1.8761,1.876,1.8726,1.8713,1.8709,1.8702,1.8717,1.8657,1.8651,1.8646,1.8626,1.8619,1.8711,1.8711,1.8711,1.8711,0,1.8746,1.8732,1.8713,1.871,1.8703,1.8682,1.8696,1.8686,1.8699,1.8705,1.8679,1.868,1.8668,1.8661,1.8671,1.8629,1.8638,1.8655,1.8681,1.8635,1.8617,1.861,1.8707,1.8708,1.8709,1.8709,0,0,1.8661,1.8671,1.8663,1.8662,1.8665,1.8653,1.8633,1.8624,1.8616,1.8612,1.8594,1.8575,1.8591,1.8586,1.8596,1.8579,1.8535,1.8599,1.8599,1.8586,1.8488,1.8474,1.8465,1.8546,1.8544,1.8543,1.8488,0,1.8605,1.8573,1.859,1.8554,1.8541,1.8567,1.855,1.8549,1.8555,1.8543,1.8549,1.8534,1.8558,1.8555,1.8539,1.8543,1.8515,1.8548,1.8527,1.8527,1.8526,1.8456,1.844,1.8388,1.8481,1.848,1.8479,0,1.8535,1.8531,1.8495,1.8502,1.8497,1.8481,1.8474,1.8463,1.8463,1.8468,1.8463,1.8478,1.8458,1.8486,1.8457,1.8479,1.8472,1.8473,1.8471,1.8468,1.8499,1.8449,1.8372,1.8363,1.8468,1.8469,1.847,0,1.8476,1.8461,1.8438,1.8436,1.8443,1.8432,1.8434,1.8435,1.8429,1.8423,1.8419,1.841,1.8404,1.8396,1.8408,1.8428,1.8378,1.8407,1.838,1.838,1.8366,1.8367,1.8285,1.8364,1.8365,1.8365,1.8365,0,1.8411,1.8387,1.8411,1.8396,1.8371,1.8391,1.8364,1.8369,1.8371,1.8356,1.8378,1.8364,1.8382,1.8369,1.8378,1.8353,1.835,1.8353,1.8355,1.835,1.835,1.8344,1.8347,1.8363,1.8363,1.8364,1.8364,0,1.8339,1.8354,1.833,1.834,1.8342,1.8323,1.833,1.8317,1.8325,1.8307,1.8304,1.8316,1.8303,1.8315,1.8301,1.8307,1.8273,1.8281,1.8274,1.8275,1.8248,1.825,1.8158,1.8147,1.8235,1.8234,1.8234,0,1.8295,1.8279,1.8287,1.8281,1.8282,1.8271,1.8265,1.8284,1.8278,1.8277,1.8263,1.8252,1.8244,1.8221,1.8227,1.8217,1.8224,1.8193,1.8223,1.8218,1.8222,1.8223,1.8221,1.8186,1.8185,1.8185,1.8184,0,1.8217,1.8226,1.8218,1.8214,1.8207,1.8204,1.8202,1.8195,1.8215,1.8206,1.8194,1.8188,1.8175,1.8163,1.8156,1.8156,1.8172,1.8175,1.8168,1.8162,1.8158,1.8158,1.8256,1.8176,1.8177,1.8178,1.8178,1.8178,1.8157,1.8144,1.8148,1.8139,1.8141,1.8139,1.8127,1.8135,1.8126,1.8118,1.813,1.8114,1.8115,1.8107,1.8106,1.8093,1.8106,1.8096,1.8093,1.809,1.8086,1.8162,1.8092,1.8092,1.8092,1.8093,1.8093,0,1.8079,1.8084,1.8076,1.8074,1.8067,1.8086,1.8086,1.8077,1.8064,1.8065,1.8057,1.8043,1.8032,1.8039,1.803,1.8018,1.8026,1.8015,1.8015,1.8015,1.8075,1.8082,1.8009,1.8009,1.8009,1.8009,1.8009,1.8009,1.8037,1.8016,1.8025,1.8004,1.8009,1.7995,1.7993,1.7991,1.7992,1.7976,1.7968,1.7974,1.7976,1.7968,1.7959,1.7961,1.7956,1.7942,1.7947,1.8002,1.8011,1.8018,1.8024,1.7941,1.7941,1.7887,1.7887,1.7886]}]]